Location: Ethel Rock
(53.4667°N, 4.5667°W)
Time: 01:29:43
(UTC+00:00)

PAYLOAD A - Pass Details

Date: 24 October 2020
Orbit: 692 x 831 km, 98.3° (Epoch: 26 November)

Event Time Altitude Azimuth Distance (km) Brightness Sun altitude
Rises 05:17:46 0° 11° (N) 3,176 7.4 -16.2°
Reaches altitude 10° 05:20:08 10° 4° (N) 2,269 6.5 -15.8°
Maximum altitude 05:24:46 40° 296° (WNW) 1,116 4.4 -15.1°
Enters shadow 05:28:55 13° 231° (SW) 2,109 5.8 -14.5°
